Погода в Тужинке

Россия / Республика Бурятия     52°18′22″N   110°32′58″E
темп.,
°C
ветер,
м/с
пор.,
м/с
влажн.,
%
обл.,
%
осадки,
мм/ч
давл.,
гПа
погр.,
м
17 апреля, сб
сб1723:00−1зюз34535 0.0 101657
02:00−2юз2256100 0.0 101622
05:00−3ююз225653 0.0 101419
08:00+2юз253815 0.0 1013298
11:00+9зюз572984 0.0 1008991
14:00+13з682499 0.0 10051675
17:00+13з67245 0.0 10031839
20:00+7з22375 0.0 100410
18 апреля, вс
вс1823:00+4зюз11475 0.0 100410
02:00+3юз225320 0.0 100510
05:00+2сз5126410 0.0 1008475
08:00+2з5661100 0.0 1012727
11:00+5зсз89285 0.0 10141470
14:00+6сз810210 0.0 10142195
17:00+2ссз99235 0.0 10181874
20:00−3ссз610310 0.0 1023573
19 апреля, пн
пн1923:00−6зсз22430 0.0 102519
02:00−8ссв01500 0.0 102610
05:00−9всв11495 0.0 102710
08:00−4в24325 0.0 1025419
11:00+3ююв451692 0.0 10191107
14:00+8ю46185 0.0 10121671
17:00+11юз36200 0.0 10071512
20:00+7ююв22345 0.0 100611
20 апреля, вт
вт2023:00+4ю22435 0.0 100619
02:00+2юз22615 0.0 100518
05:000ссз3660100 0.0 1011120
08:00+3з4549100 0.0 1013539
11:00+6зсз6724100 0.0 10141406
14:00+6сз4428100 0.3 10141045
17:00+7ссз3324100 0.0 10121700
20:00+3с3640100 0.3 1015228
21 апреля, ср
ср2123:00+1ссз2344100 0.1 101557
02:000зсз114796 0.3 101621
05:00−3с225674 0.0 101610
08:000ссв2343100 0.0 1016322
11:00+6всв443121 0.0 10121079
14:00+10св232924 0.0 10061735
17:00+12ссз533113 0.0 10021012
20:00+6сз111445100 0.0 1004537